Location: Feura Bush
(42.5779°N, 73.8787°W)
Time: 07:30:53
(UTC+00:00)

UNISAT 6 - Pass Details

Date: 10 December 2024
Orbit: 584 x 653 km, 97.7° (Epoch: 18 January)

Event Time Altitude Azimuth Distance (km) Brightness Sun altitude
Rises 22:48:42 0° 351° (N) 2,828 ? -15.3°
Reaches altitude 10° 22:52:07 10° 320° (NW) 1,930 ? -15.9°
Maximum altitude 22:53:43 12° 298° (WNW) 1,801 ? -16.2°
Drops below altitude 10° 22:55:20 10° 275° (W) 1,936 ? -16.5°
Sets 22:58:47 0° 244° (WSW) 2,848 ? -17.1°
